Hourly Data Report for October 06, 2013

All times are specified in Local Standard Time (LST). Add 1 hour to adjust for Daylight Saving Time where and when it is observed.

CLYDE RIVER A
NUNAVUT

70°29'09.000" N
68°31'01.000" W
26.50 m
2400804
71090
YCY

Download Data

Hourly Data (October 2013)
Hourly Data Report for October 6, 2013
Temp Definition
°C
Dew Point Temp Definition
°C
Rel Hum Definition
%
Wind Dir Definition
10's deg

Wind Spd Definition
km/h
Visibility Definition
km
Stn Press Definition
kPa
Hmdx Definition


Wind Chill Definition


Weather Definition


TIME
00:00 Legend Double Dagger -12.0 -15.9 73 28 24 16.1 101.38   -21 LegendNANA
01:00 Legend Double Dagger -12.0 -15.7 74 29 32 16.1 101.38   -22 LegendNANA
02:00 Legend Double Dagger -11.0 -15.0 73 25 13 16.1 101.42   -17 LegendNANA
03:00 Legend Double Dagger -9.7 -14.7 68 24 18 16.1 101.45   -17 LegendNANA
04:00 Legend Double Dagger -9.6 -14.9 66 24 18 16.1 101.46   -17 LegendNANA
05:00 Legend Double Dagger -8.6 -13.8 66 23 17 16.1 101.48   -15 LegendNANA
06:00 Legend Double Dagger -8.2 -13.6 65 24 15 16.1 101.51   -15 LegendNANA
07:00 Legend Double Dagger -8.2 -13.7 65 26 15 16.1 101.54   -15 LegendNANA
08:00 Legend Double Dagger -9.3 -13.5 72 23 13 16.1 101.57   -15 LegendNANA
09:00 Legend Double Dagger -8.9 -12.9 73 29 18 16.1 101.61   -16 LegendNANA
10:00 Legend Double Dagger -9.1 -13.3 72 29 28 16.1 101.61   -18 LegendNANA
11:00 Legend Double Dagger -9.2 -13.0 74 29 26 16.1 101.63   -18 LegendNANA
12:00 Legend Double Dagger -9.1 -12.9 74 23 11 16.1 101.68   -15 LegendNANA
13:00 Legend Double Dagger -9.5 -13.1 75 24 9 16.1 101.72   -14 LegendNANA
14:00 Legend Double Dagger -7.7 -11.6 74 25 11 16.1 101.75   -13 LegendNANA
15:00 Legend Double Dagger -8.6 -12.0 77 29 22 16.1 101.76   -16 LegendNANA
16:00 Legend Double Dagger -8.0 -11.2 78 26 13 16.1 101.82   -14 LegendNANA
17:00 Legend Double Dagger -7.5 -11.1 76 30 18 16.1 101.85   -14 LegendNANA
18:00 Legend Double Dagger -7.6 -11.0 77 29 24 16.1 101.88   -16 LegendNANA
19:00 Legend Double Dagger -7.9 -11.3 77 29 30 16.1 101.88   -17 LegendNANA
20:00 Legend Double Dagger -8.6 -11.9 77 29 30 16.1 101.89   -18 LegendNANA
21:00 Legend Double Dagger -8.9 -12.4 76 28 28 16.1 101.89   -18 LegendNANA
22:00 Legend Double Dagger -10.9 -14.5 75 30 26 16.1 101.90   -20 LegendNANA
23:00 Legend Double Dagger -10.5 -14.1 75 29 30 16.1 101.89   -20 LegendNANA

Notes on Data Quality.

Legend

  • E = Estimated
  • M = Missing
  • NA = Not Available
  • ‡ = Partner data that is not subject to review by the National Climate Archives
Date modified: